Location: Montreal
(45.5087°N, 73.5540°W)
Time: 02:08:39
(UTC-04:00)

Tiangong 2 - Visible Passes

Search period start: 21 August 2018 00:00
Search period end: 31 August 2018 00:00
Orbit: 384 x 395 km, 42.8° (Epoch: 20 August)

Date Brightness Start Highest point End Pass type
(mag) Time Alt. Az. Time Alt. Az. Time Alt. Az.
21 Aug 3.1 03:48:46 21° SE 03:48:46 21° SE 03:50:23 10° E visible
21 Aug 1.5 05:21:05 10° WSW 05:24:12 51° S 05:27:20 10° E visible
22 Aug 1.5 04:25:50 40° SSW 04:26:22 44° S 04:29:28 10° E visible
23 Aug 3.6 03:30:37 17° ESE 03:30:37 17° ESE 03:31:33 10° E visible
23 Aug 1.4 05:02:56 17° WSW 05:05:11 51° S 05:08:20 10° ESE visible
24 Aug 1.6 04:07:46 46° SE 04:07:46 46° SE 04:10:28 10° E visible
25 Aug 1.5 04:45:00 30° WSW 04:46:08 45° S 04:49:13 10° ESE visible
26 Aug 3.1 03:50:00 23° ESE 03:50:00 23° ESE 03:51:24 10° ESE visible
26 Aug 2.3 05:22:20 11° WSW 05:24:49 26° SSW 05:27:34 10° SE visible
27 Aug 2.0 04:27:28 33° S 04:27:28 33° S 04:29:59 10° SE visible
28 Aug 2.7 05:05:10 17° SW 05:05:36 18° SSW 05:07:50 10° SSE visible
